Regional Weather Roundup
Issued by NWS Northern Indiana

Home | Current Version | Previous Version | Graphics & Text | Print | Product List | Glossary On
Versions: 1 2 3 4 5 6 7 8 9 10 11 12 13 14 15 16 17 18 19 20 21 22 23 24 25 26 27 28 29 30 31 32 33 34 35 36 37 38 39 40 41 42 43 44 45 46 47 48 49 50
000
ASUS43 KIWX 220601
RWRIWX

KIWX WEATHER ROUNDUP
NATIONAL WEATHER SERVICE NORTHERN INDIANA
200 AM EDT SAT JUL 22 2017

NOTE: "FAIR" INDICATES FEW OR NO CLOUDS BELOW 12,000 FEET WITH NO
SIGNIFICANT WEATHER AND/OR OBSTRUCTIONS TO VISIBILITY.

* THESE STATIONS ARE NOT UNDER NWS QUALITY CONTROL. THEY ALSO MAY NOT
  REPORT WEATHER SUCH AS PRECIPITATION OR FOG.

INZ001>027-220700-
NORTHERN INDIANA

CITY           SKY/WX    TMP DP  RH WIND       PRES   REMARKS
MICHIGAN CITY* RAIN      72  72 100 S6        29.88F
SOUTH BEND     RAIN      72  72 100 SE7       29.91S
6HR MIN TEMP:  71; 6HR MAX TEMP:  81; 6HR PCP:  0.60;

GOSHEN         RAIN      74  70  87 S7        29.92F FOG
6HR MIN TEMP:  73; 6HR MAX TEMP:  82; 6HR PCP:  0.29;

MONTICELLO*    CLOUDY    74  72  94 SE6       29.84F
6HR MIN TEMP:  74; 6HR MAX TEMP:  84; 6HR PCP:  0.21;

FORT WAYNE     TSTM      75  71  87 N6        29.92F FOG
6HR MIN TEMP:  74; 6HR MAX TEMP:  82; 6HR PCP:  0.01;

PERU/GRISSOM   CLOUDY    74  74 100 SE6       29.85F
6HR MIN TEMP:  73; 6HR MAX TEMP:  84; 6HR PCP:  0.01;


$$
INZ028>050-220700-
CENTRAL INDIANA

CITY           SKY/WX    TMP DP  RH WIND       PRES   REMARKS
LAFAYETTE      CLOUDY    77  75  93 S7        29.84F
6HR MIN TEMP:  73; 6HR MAX TEMP:  83; 6HR PCP: TRACE;

KOKOMO*        CLOUDY    76  73  91 S8        29.88F
6HR MIN TEMP:  74; 6HR MAX TEMP:  82; 6HR PCP:  0.06;

MUNCIE*        CLOUDY    77  73  87 CALM      29.91F
6HR MIN TEMP:  77; 6HR MAX TEMP:  84; 6HR PCP:  0.05;

INDIANAPOLIS   LGT RAIN  78  75  90 W5        29.90S
6HR MIN TEMP:  78; 6HR MAX TEMP:  87; 6HR PCP:  0.09;


$$
MIZ043>046-050>051-056>058-064>065-071>073-077>080-220700-
SOUTHWEST LOWER MICHIGAN

CITY           SKY/WX    TMP DP  RH WIND       PRES   REMARKS
BATTLE CREEK   CLOUDY    72  67  84 S7        29.91F
6HR MIN TEMP:  72; 6HR MAX TEMP:  82; 6HR PCP:  0.07;

BENTON HARBOR  HVY RAIN  72  69  90 SE9       29.86F FOG
6HR MIN TEMP:  72; 6HR MAX TEMP:  76; 6HR PCP:  0.34;

COLDWATER*     LGT RAIN  73  73 100 W3        29.93S
6HR MIN TEMP:  73; 6HR MAX TEMP:  82;

HILLSDALE*     LGT RAIN  72  68  88 SE6       29.93F
HOLLAND        LGT RAIN  74  69  85 E5        29.89F
6HR MIN TEMP:  73; 6HR MAX TEMP:  77; 6HR PCP:  0.02;

GRAND RAPIDS   CLOUDY    73  71  93 E6        29.89F
6HR MIN TEMP:  73; 6HR MAX TEMP:  79; 6HR PCP:  0.01;

KALAMAZOO      LGT RAIN  70  63  78 S5        29.91F
6HR MIN TEMP:  70; 6HR MAX TEMP:  83; 6HR PCP:  0.11;

STURGIS*       LGT RAIN  72  71  97 CALM      29.92R
6HR MIN TEMP:  71; 6HR MAX TEMP:  80; 6HR PCP:  0.24;

THREE RIVERS*  RAIN      71  69  95 SE6       29.91F
6HR MIN TEMP:  71; 6HR MAX TEMP:  82;


$$
OHZ001>008-015>018-024>025-220700-
NORTHWEST OHIO

CITY           SKY/WX    TMP DP  RH WIND       PRES   REMARKS
DEFIANCE       LGT RAIN N/A N/A N/A NW5       29.94R
                                      6HR PCP: TRACE;

FINDLAY        CLOUDY    74  70  87 SE3       29.93F
6HR MIN TEMP:  73; 6HR MAX TEMP:  84;

TOLEDO EXPRESS MOCLDY    73  72  96 S3        29.93S
6HR MIN TEMP:  73; 6HR MAX TEMP:  83;

TOLEDO METCALF CLOUDY    76  71  85 SE6       29.94F
6HR MIN TEMP:  76; 6HR MAX TEMP:  84;

LIMA           CLOUDY    73  71  93 SE5       29.94F
6HR MIN TEMP:  72; 6HR MAX TEMP:  82;


$$
AND FOR LAKE MICHIGAN COASTAL AND OPEN LAKE BUOY OBSERVATIONS

STATION/POSITION TEMP    WIND        PRES    VSBY  WAVE
                 AIR SEA DIR/SP/G                  HT/PER
                 (F)     (DEG/KT/KT) (MB)    (MI)  (FT/S)
CALUMET HARBOR    73     180/ 10/ 15 1010.4F
MICHIGAN CITY     72     170/ 14/ 17   N/A
BURNS HARBOR      73     190/ 11/ 18 1011.5F
SAINT JOSEPH      72     180/  1/  3 1012.5
SOUTH LAKE BUOY   73 71  100/ 12/ 14 1010.7          1/ 3
4 MI NW BRIDGMAN  73 77  170/ 14/ 17 1010.9F         1
MICHIGAN CITY     73 75  190/ 16/ 21   N/A           1/ 2

$$
&&



USA.gov is the U.S. government's official web portal to all federal, state and local government web resources and services.